"Pseudo-MPEC" for C1RTMD2

Created 2020 Jan 15 19:07:06 UT using Find_Orb

Click here for an explanation of pseudo-MPECs

 
 Astrometry: 
     C1RTMD2  C2020 01 14.23273 07 27 08.32 +17 42 26.4    ~1E6M 19.5 GVNEOCPG96
     C1RTMD2  C2020 01 14.23858 07 27 14.95 +17 44 19.2    ~1E6M 19.6 GVNEOCPG96
     C1RTMD2  C2020 01 14.24441 07 27 21.57 +17 46 11.5    ~1E6M 19.5 GVNEOCPG96
     C1RTMD2  C2020 01 14.25025 07 27 28.12 +17 48 03.8    ~1E6M 19.3 GVNEOCPG96
     C1RTMD2  C2020 01 14.26972707 27 49.47 +17 54 14.1    ~1E7M 19.3 GVNEOCPH01
     C1RTMD2  C2020 01 14.27683807 27 57.49 +17 56 30.1    ~1E7M 19.2 GVNEOCPH01
     C1RTMD2  C2020 01 14.28394207 28 05.50 +17 58 45.9    ~1E7M 19.5 GVNEOCPH01
     C1RTMD2  C2020 01 14.29104507 28 13.53 +18 01 01.6    ~1E7M 19.5 GVNEOCPH01
     C1RTMD2  C2020 01 14.32498 07 28 52.37 +18 11 52.6    ~1E87       VNEOCPI52
     C1RTMD2  C2020 01 14.32523 07 28 52.72 +18 11 56.8    ~1E87 19.7 GVNEOCPI52
     C1RTMD2  C2020 01 14.32547 07 28 52.96 +18 12 01.7    ~1E87 20.0 GVNEOCPI52
     C1RTMD2  C2020 01 14.32571 07 28 53.28 +18 12 07.1    ~1E87 19.6 GVNEOCPI52
     C1RTMD2 KC2020 01 141_1X\7()Y0#LK;[6=pe-Astrometry77py#O;7;redacted;LwL_595
     C1RTMD2 KC2020 01 14YdA=wQ@#[9lR/m=5TT%.)TclickIuhereJOLv4_for:/kavo=2.0595
     C1RTMD2 pC2020 01 14qW6,eD3jRpEUEI+qEsW:)3+Dexplanation0TaBbK:Y\P@Hu-8'#595
     C1RTMD2  C2020 01 15.21159 07 46 41.92 +22 42 41.2    ~1F5b 19.2 GVNEOCPG96
     C1RTMD2  C2020 01 15.21228 07 46 42.73 +22 42 53.8    ~1F5b 19.4 GVNEOCPG96
     C1RTMD2  C2020 01 15.21298 07 46 43.53 +22 43 06.1    ~1F5b 19.4 GVNEOCPG96
     C1RTMD2  C2020 01 15.21368 07 46 44.32 +22 43 18.5    ~1F5b 19.5 GVNEOCPG96
     C1RTMD2  C2020 01 15.22725 07 46 59.93 +22 47 18.5    ~1F5q 18.9 GVNEOCPI52
     C1RTMD2  C2020 01 15.22755 07 47 00.13 +22 47 23.9    ~1F5q 18.6 GVNEOCPI52
     C1RTMD2  C2020 01 15.22785 07 47 00.50 +22 47 29.8    ~1F5q 19.3 GVNEOCPI52
     C1RTMD2  C2020 01 15.22816 07 47 00.85 +22 47 35.3    ~1F5q 19.6 GVNEOCPI52

Station data:
(595) Farra d'Isonzo  (N45.915734 E13.525780)  Italy.  Observers L.
   Bittesini, F. Fabris, E. Pettarin, F. Piani. Measurer E. Pettarin. 0.30-m
   f/4.5 reflector + CCD.
(G96) Mt. Lemmon Survey  (N32.442754 W110.788720)  US/Arizona.  Observers T.
   A. Pruyne, B. M. Africano, E. J. Christensen, G. A. Farneth, D. C. Fuls,
   A. R. Gibbs, A. D. Grauer, H. Gröller, J. A. Johnson, R. A. Kowalski, S.
   M. Larson, G. J. Leonard, D. Rankin, R. L. Seaman, F. C. Shelly. 1.5-m
   reflector + 10K CCD.
(H01) Magdalena Ridge Observatory, Socorro  (N33.984833 W107.189333)  US/New
   Mexico.  Observers W. H. Ryan, E. V. Ryan. Measurer W. H. Ryan. 2.4-m
   f/8.9 reflector + CCD.
(I52) Steward Observatory, Mt. Lemmon Station  (N32.442547 W110.788920)
   US/Arizona.  Observers T. A. Pruyne, B. M. Africano, E. J. Christensen, G.
   A. Farneth, D. C. Fuls, A. R. Gibbs, A. D. Grauer, H. Gröller, J. A.
   Johnson, R. A. Kowalski, S. M. Larson, G. J. Leonard, D. Rankin, R. L.
   Seaman, F. C. Shelly. 1.0-m reflector + CCD.

Orbital elements:  C1RTMD2
   Perihelion 2020 Jan 4.454188 +/- 0.0242 TT = 10:54:01 (JD 2458852.954188)
Epoch 2020 Jan 15.0 TT = JDT 2458863.5   Earth MOID: 0.0474   AutoNEOCP
M   2.58351423 +/- 0.035            (J2000 ecliptic)
n   0.24498011 +/- 0.00298          Peri.  347.45995 +/- 0.025
a   2.52958239 +/- 0.0205           Node   113.93546 +/- 0.00012
e   0.5952296 +/- 0.0032            Incl.   13.46555 +/- 0.048
P   4.02                   H 25.9   G  0.15   U  8.8  
q 1.02389991 +/- 0.000201    Q 4.03526487 +/- 0.0412
From 23 observations 2020 Jan. 14-15 (23.9 hr); mean residual 0".41
Residuals in arcseconds: 
200114 G96  .21-  .33-    200114 I52  .83-  .17+    200115 G96  .15+  .51+    
200114 G96  .11-  .28-    200114 I52  .14+  .38-    200115 G96  .13+  .36+    
200114 G96  .25+  .23-    200114 I52  .30-  .04-    200115 G96  .03-  .31+    
200114 G96  .49-  .28-    200114 I52  .40+  .81+    200115 I52  1.3+  .68-    
200114 H01  .23+  .20+    200114 595  .05+  .30+    200115 I52  .66-  .60-    
200114 H01  .18+  .09+    200114 595  .15-  .54+    200115 I52  .28-  .02-    
200114 H01  .13+  .08+    200114 595  .07-  .97-    200115 I52  .33-  .01-    
200114 H01  .39+  .14+    200115 G96  .12-  .18+    

Ephemerides (geocentric):
Date (UTC) HH   RA              Dec         delta   r     elong  mag " sig PA
---- -- -- --  -------------   -----------  ------ ------ -----  --- ---- ---
2020 01 15 19  07 58 09.253   +25 27 43.03  .05121 1.0346 175.0 20.0 .927  81
2020 01 15 20  07 58 58.937   +25 39 05.35  .05131 1.0347 174.7 20.0 .978  80
2020 01 15 21  07 59 48.592   +25 50 24.08  .05140 1.0348 174.5 20.0 1.03  78
2020 01 15 22  08 00 38.217   +26 01 39.20  .05150 1.0348 174.3 20.0 1.09  77
2020 01 15 23  08 01 27.811   +26 12 50.70  .05160 1.0349 174.0 20.0 1.14  76
2020 01 16 00  08 02 17.372   +26 23 58.55  .05170 1.0350 173.8 20.0 1.20  75
2020 01 16 01  08 03 06.899   +26 35 02.74  .05180 1.0351 173.5 20.0 1.26  74
2020 01 16 02  08 03 56.391   +26 46 03.26  .05190 1.0352 173.3 20.1 1.32  73
2020 01 16 03  08 04 45.845   +26 57 00.10  .05200 1.0352 173.1 20.1 1.38  72
2020 01 16 04  08 05 35.261   +27 07 53.23  .05210 1.0353 172.8 20.1 1.45  71
2020 01 16 05  08 06 24.637   +27 18 42.66  .05221 1.0354 172.6 20.1 1.51  71
2020 01 16 06  08 07 13.972   +27 29 28.37  .05231 1.0355 172.4 20.1 1.58  70
2020 01 16 07  08 08 03.264   +27 40 10.34  .05242 1.0356 172.1 20.1 1.65  69
2020 01 16 08  08 08 52.512   +27 50 48.58  .05253 1.0356 171.9 20.2 1.72  69
2020 01 16 09  08 09 41.715   +28 01 23.06  .05264 1.0357 171.7 20.2 1.79  68
2020 01 16 10  08 10 30.871   +28 11 53.78  .05275 1.0358 171.4 20.2 1.86  68
2020 01 16 11  08 11 19.979   +28 22 20.74  .05286 1.0359 171.2 20.2 1.94  67
2020 01 16 12  08 12 09.038   +28 32 43.93  .05297 1.0360 171.0 20.2 2.01  67
2020 01 16 13  08 12 58.046   +28 43 03.33  .05308 1.0361 170.7 20.2 2.09  66
2020 01 16 14  08 13 47.002   +28 53 18.95  .05320 1.0361 170.5 20.2 2.17  66
2020 01 16 15  08 14 35.904   +29 03 30.78  .05331 1.0362 170.3 20.2 2.24  66
2020 01 16 16  08 15 24.752   +29 13 38.82  .05343 1.0363 170.1 20.3 2.32  65
2020 01 16 17  08 16 13.543   +29 23 43.06  .05355 1.0364 169.8 20.3 2.41  65
2020 01 16 18  08 17 02.277   +29 33 43.50  .05366 1.0365 169.6 20.3 2.49  65
2020 01 16 19  08 17 50.953   +29 43 40.14  .05378 1.0366 169.4 20.3 2.57  64
2020 01 16 20  08 18 39.569   +29 53 32.97  .05390 1.0366 169.2 20.3 2.65  64
2020 01 16 21  08 19 28.123   +30 03 22.01  .05403 1.0367 169.0 20.3 2.74  64
2020 01 16 22  08 20 16.615   +30 13 07.23  .05415 1.0368 168.7 20.3 2.82  63
2020 01 16 23  08 21 05.044   +30 22 48.65  .05427 1.0369 168.5 20.4 2.91  63
2020 01 17 00  08 21 53.407   +30 32 26.27  .05440 1.0370 168.3 20.4 3.00  63
2020 01 17 01  08 22 41.704   +30 42 00.09  .05452 1.0371 168.1 20.4 3.09  63
2020 01 17 02  08 23 29.934   +30 51 30.11  .05465 1.0372 167.9 20.4 3.18  63
2020 01 17 03  08 24 18.095   +31 00 56.32  .05477 1.0373 167.7 20.4 3.27  63
2020 01 17 04  08 25 06.186   +31 10 18.75  .05490 1.0373 167.4 20.4 3.36  62
2020 01 17 05  08 25 54.207   +31 19 37.39  .05503 1.0374 167.2 20.4 3.45  62
2020 01 17 06  08 26 42.155   +31 28 52.23  .05516 1.0375 167.0 20.4 3.54  62
2020 01 17 07  08 27 30.030   +31 38 03.30  .05529 1.0376 166.8 20.5 3.63  62
2020 01 17 08  08 28 17.830   +31 47 10.59  .05542 1.0377 166.6 20.5 3.73  62
2020 01 17 09  08 29 05.554   +31 56 14.12  .05556 1.0378 166.4 20.5 3.82  62
2020 01 17 10  08 29 53.202   +32 05 13.87  .05569 1.0379 166.2 20.5 3.92  62
2020 01 17 11  08 30 40.772   +32 14 09.88  .05583 1.0380 166.0 20.5 4.01  62
2020 01 17 12  08 31 28.263   +32 23 02.13  .05596 1.0380 165.8 20.5 4.11  61
2020 01 17 13  08 32 15.673   +32 31 50.63  .05610 1.0381 165.6 20.5 4.21  61
2020 01 17 14  08 33 03.002   +32 40 35.41  .05623 1.0382 165.4 20.5 4.30  61
2020 01 17 15  08 33 50.249   +32 49 16.46  .05637 1.0383 165.2 20.6 4.40  61
2020 01 17 16  08 34 37.413   +32 57 53.79  .05651 1.0384 165.0 20.6 4.50  61
2020 01 17 17  08 35 24.492   +33 06 27.41  .05665 1.0385 164.8 20.6 4.60  61
2020 01 17 18  08 36 11.485   +33 14 57.34  .05679 1.0386 164.6 20.6 4.70  61